CW7217 Weather Reports


time (UTC)temp
C
wind
direction
speed
KPH
gust
KPH
rain 1hr
cm
rain 24hr
cm
rain mn
cm
humidity
%
barometer
mb
20260507103058 9 0.0 0.0 0.00 0.00 0.00 84 1021.0
20260507101553 10 0.0 0.0 0.00 0.00 0.00 82 1020.9
20260507094559 10 0.0 0.0 0.00 0.00 0.00 81 1020.5
20260507093057 10 0.0 0.0 0.00 0.00 0.00 81 1020.3
20260507091612 10 0.0 0.0 0.00 0.00 0.00 81 1020.2
20260507090058 10 0.0 0.0 0.00 0.00 0.00 80 1020.0
20260507084609 10 0.0 0.0 0.00 0.00 0.00 80 1019.9
20260507083057 11 0.0 0.0 0.00 0.00 0.00 79 1019.7
20260507081559 11 0.0 0.0 0.00 0.00 0.00 78 1019.7
20260507080059 11 0.0 0.0 0.00 0.00 0.00 78 1019.6
20260507074600 11 0.0 0.0 0.00 0.00 0.00 79 1019.6
20260507073056 11 0.0 0.0 0.00 0.00 0.00 79 1019.6
20260507071553 11 0.0 0.0 0.00 0.00 0.00 79 1019.8
20260507070105 11 0.0 0.0 0.00 0.00 0.00 78 1019.6
20260507064558 12 0.0 0.0 0.00 0.00 0.00 77 1019.4
20260507063053 12 0.0 0.0 0.00 0.00 0.00 76 1019.2
20260507061558 12 0.0 0.0 0.00 0.00 0.00 76 1019.0
20260507060101 12 0.0 0.0 0.00 0.00 0.00 76 1018.7
20260507054559 12 0.0 0.0 0.00 0.00 0.00 75 1018.4
20260507053058 12 0.0 0.0 0.00 0.00 0.00 74 1018.3
20260507051559 12 0.0 0.0 0.00 0.00 0.00 73 1017.9
20260507050057 12 0.0 0.0 0.00 0.00 0.00 72 1017.8
20260507044609 13 0.0 0.0 0.00 0.00 0.00 72 1017.4
20260507043104 13 0.0 0.0 0.00 0.00 0.00 71 1017.2
20260507041604 13 0.0 0.0 0.00 0.00 0.00 70 1017.3
20260507040058 13 0.0 0.0 0.00 0.00 0.00 69 1017.4
20260507034559 13 0.0 0.0 0.00 0.00 0.00 68 1017.4
20260507033055 14 0.0 0.0 0.00 0.00 0.00 67 1017.2
20260507031559 14 0.0 0.0 0.00 0.00 0.00 67 1017.0
20260507030054 14 0.0 0.0 0.00 0.00 0.00 67 1016.8
20260507024557 14 0.0 0.0 0.00 0.00 0.00 65 1016.7
20260507023108 15 0.0 0.0 0.00 0.00 0.00 64 1016.6
20260507021557 15 0.0 0.0 0.00 0.00 0.00 63 1016.4
20260507020100 15 0.0 0.0 0.00 0.00 0.00 62 1016.3
20260507014557 16 0.0 0.0 0.00 0.00 0.00 60 1016.1
20260507013052 16 0.0 0.0 0.00 0.00 0.00 59 1015.9
20260507011552 17 0.0 0.0 0.00 0.00 0.00 57 1015.7
20260507010054 17 0.0 0.0 0.00 0.00 0.00 56 1015.6
20260507004557 17 0.0 0.0 0.00 0.00 0.00 55 1015.7
20260507003113 18 0.0 0.0 0.00 0.00 0.00 53 1015.3
20260507001615 19 0.0 0.0 0.00 0.00 0.00 52 1015.1
20260507000058 19 0.0 0.0 0.00 0.00 0.00 53 1015.0
20260506234555 19 0.0 0.0 0.00 0.00 0.00 52 1015.0
20260506233055 19 0.0 0.0 0.00 0.00 0.00 52 1015.1
20260506231606 20 0.0 0.0 0.00 0.00 0.00 50 1015.0
20260506230113 20 0.0 0.0 0.00 0.00 0.00 49 1014.7
20260506224553 20 0.0 0.0 0.00 0.00 0.00 49 1014.4
20260506223103 20 0.0 0.0 0.00 0.00 0.00 47 1014.3
20260506221610 20 0.0 0.0 0.00 0.00 0.00 47 1014.2
20260506220056 21 0.0 0.0 0.00 0.00 0.00 46 1014.0
20260506214557 21 0.0 0.0 0.00 0.00 0.00 46 1014.1
20260506213055 21 0.0 0.0 0.00 0.00 0.00 45 1014.1
20260506211555 22 0.0 0.0 0.00 0.00 0.00 45 1014.2
20260506210058 22 0.0 0.0 0.00 0.00 0.00 43 1014.5
20260506204556 22 0.0 0.0 0.00 0.00 0.00 44 1014.4
20260506203119 23 0.0 0.0 0.00 0.00 0.00 43 1014.5
20260506201552 22 0.0 0.0 0.00 0.00 0.00 44 1014.9
20260506200057 21 0.0 0.0 0.00 0.00 0.00 43 1015.1
20260506194600 21 0.0 0.0 0.00 0.00 0.00 45 1015.0
20260506193104 21 0.0 0.0 0.00 0.00 0.00 46 1015.2
20260506191553 21 0.0 0.0 0.00 0.00 0.00 47 1015.3
20260506190054 20 0.0 0.0 0.00 0.00 0.00 47 1015.5
20260506184559 20 0.0 0.0 0.00 0.00 0.00 49 1015.8
20260506183108 18 0.0 0.0 0.00 0.00 0.00 52 1016.0
20260506181604 17 0.0 0.0 0.00 0.00 0.00 54 1016.2
20260506180058 17 0.0 0.0 0.00 0.00 0.00 54 1016.3
20260506174559 16 0.0 0.0 0.00 0.00 0.00 58 1016.5
20260506173106 16 0.0 0.0 0.00 0.00 0.00 59 1016.6
20260506171553 16 0.0 0.0 0.00 0.00 0.00 59 1016.4
20260506170057 15 0.0 0.0 0.00 0.00 0.00 62 1016.5
20260506164615 14 0.0 0.0 0.00 0.00 0.00 65 1016.9
20260506163101 13 0.0 0.0 0.00 0.00 0.00 68 1016.7
20260506161553 12 0.0 0.0 0.00 0.00 0.00 71 1016.3
20260506160105 12 0.0 0.0 0.00 0.00 0.00 74 1016.4
20260506154559 11 0.0 0.0 0.00 0.00 0.00 75 1016.2
20260506153053 11 0.0 0.0 0.00 0.00 0.00 76 1016.2
20260506151555 11 0.0 0.0 0.00 0.00 0.00 77 1016.1
20260506144555 11 0.0 0.0 0.00 0.00 0.00 76 1016.1
20260506143056 11 0.0 0.0 0.00 0.00 0.00 76 1016.4
20260506141556 11 0.0 0.0 0.00 0.00 0.00 77 1016.1
20260506140056 10 0.0 0.0 0.00 0.00 0.00 78 1016.2
20260506134555 10 0.0 0.0 0.00 0.00 0.00 78 1016.5
20260506133109 10 0.0 0.0 0.00 0.00 0.00 78 1015.8
20260506131614 10 0.0 0.0 0.00 0.00 0.00 77 1015.9
20260506130053 10 0.0 0.0 0.00 0.00 0.00 77 1015.4
20260506124552 10 0.0 0.0 0.00 0.00 0.00 78 1015.7
20260506123057 10 0.0 0.0 0.00 0.00 0.00 78 1015.6
20260506121600 10 0.0 0.0 0.00 0.00 0.00 78 1014.7
20260506120103 11 0.0 0.0 0.00 0.00 0.00 78 1014.1
20260506114556 11 0.0 0.0 0.00 0.00 0.00 78 1013.8
20260506113058 11 0.0 0.0 0.00 0.00 0.00 78 1013.5
20260506111557 11 0.0 0.0 0.00 0.00 0.00 77 1013.7
20260506110109 11 0.0 0.0 0.00 0.00 0.00 78 1013.5
20260506104608 11 0.0 0.0 0.00 0.00 0.00 78 1013.3